Preview of NWS' New Version of Forecast
This preview is not operational and should not be used for support decisions.
Latest weather observations around

Olathe, New Century Aircenter (KIXD)

Using English Units (Switch to International System of Units)
Date/ Time (CDT) Wind (mph) Vis. (mi) Weather Sky Cond. Temp (°F) Rel. Humidity Wind Chill (°F) Heat Index (°F) Pressure Precip. (in)
Air Dwpt 6 hour Altimeter (inHg) Sea level (inHg) 1 hr 3 hr 6 hr
Max Min
Jun 24 10:53 NW 10 10 Clear CLR 70 58     66%     29.87 29.84      
Jun 24 09:53 WNW 9 10 Mostly Clear FEW021 68 57     68%     29.86 29.84      
Jun 24 08:53 W 13 10 Clear CLR 65 57     76%     29.85 29.83      
Jun 24 07:53 WNW 11 10 Partly Cloudy SCT011 62 57     84%     29.83 29.8      
Jun 24 07:15 WNW 9 10 Partly Cloudy SCT011 62 58     86%     29.82        
Jun 24 06:53 WNW 14 10 Mostly Cloudy BKN012 61 57     87%     29.81 29.79      
Jun 24 06:39 WNW 10 10 Mostly Cloudy BKN012 61 58     90%     29.81        
Jun 24 05:53 WNW 13 10 Partly Cloudy SCT016 62 57     84%     29.8 29.77      
Jun 24 05:04 NW 15 10 Cloudy OVC016 64 60     87%     29.79        
Jun 24 04:53 WNW 11 10 Cloudy OVC014 64 61     90%     29.79 29.76      
Jun 24 04:42 WNW 13 10 Mostly Cloudy FEW011 BKN016 BKN037 64 61     90%     29.78        
Jun 24 04:01 W 10 10 Mostly Cloudy FEW021 BKN032 BKN041 65 62     90%     29.77        
Jun 24 03:53 W 7 10 Mostly Cloudy FEW015 SCT021 BKN029 66 63     90%     29.77 29.74      
Jun 24 02:53 WSW 6 10 Clear CLR 67 65     93%     29.77 29.74      
Jun 24 01:53 SW 8 10 Mostly Cloudy SCT024 BKN044 BKN055 68 66     93%     29.78 29.75      
Jun 24 01:13 SSW 7 10 Mostly Cloudy BKN025 68 65     90%     29.78        
Jun 24 00:53 SSW 8 10 Mostly Clear FEW038 68 65     90%     29.78 29.75      
Jun 23 23:53 SSW 9 10 Partly Cloudy SCT034 68 65     90%     29.79 29.76      
Jun 23 22:53 SSE 9 10 Partly Cloudy SCT035 68 65     90%     29.75 29.73      
Jun 23 21:53 SSE 6 10 Mostly Clear FEW044 FEW060 68 65     90%     29.77 29.74      
Jun 23 20:53 SSE 6 10 Clear CLR 69 65     87%     29.76 29.74      
Jun 23 19:53 SSE 6 10 Clear CLR 71 66     84%   72 29.76 29.74      
Jun 23 18:53 Calm 10 Clear CLR 73 64     73%   73 29.75 29.72      
Jun 23 17:53 WNW 6 10 Mostly Cloudy FEW026 BKN036 73 64     73%   73 29.75 29.72      
Jun 23 17:13 WNW 8 10 Partly Cloudy SCT022 73 64     73%   73 29.75        
Jun 23 16:53 WNW 9 10 Mostly Cloudy BKN022 BKN027 73 64     73%   73 29.76 29.73      
Jun 23 16:39 NW 7 10 Mostly Cloudy BKN018 BKN026 72 64     76%   72 29.76        
Jun 23 16:32 W 9 10 Partly Cloudy FEW015 SCT022 SCT027 72 65     79%   73 29.77        
Jun 23 15:53 WNW 10 10 Cloudy FEW013 OVC025 70 64     81%     29.78 29.76      
Jun 23 15:25 WNW 10 10 Cloudy SCT013 OVC020 69 64     84%     29.79        
Jun 23 14:53 W 8 10 Cloudy BKN013 OVC018 68 64     87%     29.79 29.76      
Jun 23 14:42 W 9 10 Cloudy BKN011 OVC016 67 64     90%     29.79        
Jun 23 14:22 W 10 9 Cloudy BKN009 OVC013 67 64     90%     29.78        
Jun 23 13:53 W 8 10 Cloudy OVC010 67 64     90%     29.79 29.76      
Jun 23 13:39 W 6 10 Cloudy OVC010 67 64     90%     29.79        
Jun 23 12:53 S 3 10 Cloudy OVC007 67 63     87%     29.79 29.77     1
Jun 23 12:20 ESE 6 10 Cloudy OVC008 66 63     90%     29.76        
Jun 23 12:03 ESE 10 10 Cloudy BKN010 OVC014 66 63     90%     29.75        
Jun 23 11:53 ESE 8 10 Mostly Cloudy FEW008 BKN016 66 63     90%     29.75 29.73      
Jun 23 11:48 SE 9 10 Mostly Cloudy FEW008 BKN016 66 63     88%     29.75        
Jun 23 11:35 SE 9 10 Mostly Clear FEW008 FEW018 65 62     90%     29.75        
Jun 23 10:53 E 9 10 Clear CLR 65 61     87%     29.77 29.75 0    
Jun 23 09:53 NNE 9 10 Light Rain FEW055 SCT075 BKN110 64 62     93%     29.8 29.78 0 1  
Jun 23 09:11 NNE 10 8 Light Rain BKN110 64 62     93%     29.83   0    
Jun 23 08:53 N 5 8 Thunderstorms and Rain FEW060 FEW075 BKN110 64 63     96%     29.86 29.83 0    
Jun 23 08:27 WNW 9 4 Thunderstorms and Rain and Fog/Mist FEW007 BKN040 OVC070 64 63     96%     29.89   0    
Jun 23 08:00 WNW 14 7 Thunderstorms and Rain BKN040 BKN050 OVC070 64 63     96%     29.9   0    
Jun 23 07:53 WNW 11 2 Thunderstorms and Rain and Fog/Mist BKN008 BKN023 OVC060 64 63     96%     29.88 29.85 1    
Jun 23 07:30 NNW 13 2 Thunderstorms and Heavy Rain and Fog/Mist BKN008 BKN023 OVC060 64 63     96%     29.86   1    
Jun 23 07:06 WNW 16 1 Thunderstorms and Heavy Rain and Fog/Mist BKN008 BKN023 OVC060 64 63     96%     29.88   0    
Jun 23 06:53   1 Thunderstorms and Heavy Rain and Fog/Mist BKN006 BKN010 OVC060 65 63     93%     29.87 29.83 0   1
Jun 23 06:51   1 Thunderstorms and Heavy Rain and Fog/Mist BKN006 BKN010 OVC060 64 63     94%     29.87   0    
Jun 23 06:44 3 1 Thunderstorms and Heavy Rain and Fog/Mist SCT006 BKN010 OVC060 66 64     93%     29.84   0    
Jun 23 06:40 5 6 Thunderstorms and Rain and Fog/Mist BKN008 BKN014 OVC060 66 64     93%     29.84   0    
Jun 23 06:37 7 8 Light Rain SCT008 BKN048 OVC060 66 64     93%     29.84   0    
Jun 23 06:28 WNW 14 10 Thunderstorms FEW033 OVC060 66 64     93%     29.85   0    
Jun 23 06:19 Calm 5 Light Rain and Fog/Mist FEW033 OVC060 66 64     93%     29.82   0    
Jun 23 05:53 WNW 3 10 Light Rain OVC065 66 64     93%     29.82 29.78 0    
Jun 23 04:53 ESE 9 10 Clear   66 64     93%     29.83 29.79 0    
Jun 23 04:02 E 11 4 Rain and Fog/Mist FEW006 BKN048 OVC090 66 64     93%     29.85   0    
Jun 23 03:53 E 10 7 Light Rain SCT006 BKN050 OVC090 66 64     93%     29.87 29.83 0 0  
Jun 23 03:34 E 13 10 Cloudy BKN006 BKN090 OVC110 66 64     93%     29.87   0    
Jun 23 03:19 E 13 10 Light Rain SCT009 SCT075 OVC110 66 64     93%     29.89   0    
Jun 23 02:53 E 9 8 Light Rain FEW075 BKN090 OVC120 67 64     90%     29.93 29.89 0    
Jun 23 02:15 SE 13 7 Rain FEW008 BKN095 BKN110 67 65     93%     29.96   0    
Jun 23 02:06 ESE 13 7 Rain FEW080 BKN100 BKN120 67 65     93%     29.97   0    
Jun 23 01:53 ESE 14 6 Rain and Fog/Mist SCT080 BKN090 OVC110 67 64     90%     29.95 29.92 0    
Jun 23 00:53 E 13 8 Rain BKN095 OVC110 67 64     90%     29.96 29.93 0   2
Jun 23 00:40 E 13 8 Light Rain OVC110 67 64     90%     29.95   0    
Jun 22 23:53 N 6 8 Light Rain SCT090 OVC110 66 65     96%     29.97 29.93 0    
Jun 22 23:49 N 8 8 Light Rain SCT090 OVC110 66 64     94%     29.97   0    
Jun 22 23:34 N 11 6 Light Rain and Fog/Mist FEW070 BKN090 OVC110 66 65     96%     29.96   0    
Jun 22 23:16 NNW 9 6 Rain and Fog/Mist BKN070 BKN085 OVC100 66 64     93%     29.98   0    
Jun 22 23:00 N 8 8 Thunderstorms and Rain BKN050 BKN090 OVC110 66 64     93%     29.99   0    
Jun 22 22:53 N 10 2.5 Thunderstorms and Rain and Fog/Mist BKN049 OVC090 66 64     93%     29.97 29.94 1    
Jun 22 22:37 NNW 11 3 Thunderstorms and Heavy Rain and Fog/Mist OVC041 66 64     93%     29.97   1    
Jun 22 22:18 WNW 15 2.5 Thunderstorms and Heavy Rain and Fog/Mist OVC031 65 64     97%     29.97   1    
Jun 22 22:10 WNW 10 1.5 Thunderstorms and Heavy Rain and Fog/Mist FEW012 OVC021 65 64     97%     29.95   0    
Jun 22 22:03 NW 20 0.75 Thunderstorms and Heavy Rain and Fog/Mist FEW008 OVC015 65 64     97%     29.94   0    
Jun 22 21:53   0.75 Thunderstorms and Heavy Rain and Fog/Mist BKN009 OVC013 66 64     93%     29.91   1 1  
Jun 22 21:38 NW 11 1.75 Thunderstorms and Heavy Rain and Fog/Mist SCT007 BKN010 OVC028 68 66     93%     29.89   0    
Jun 22 21:34 NW 14 3 Thunderstorms and Heavy Rain and Fog/Mist BKN007 BKN014 OVC028 69 66     90%     29.87   0    
Jun 22 21:24 SW 15 9 Thunderstorms and Rain FEW009 SCT016 BKN027 70 65     84%     29.85   0    
Jun 22 21:21 SW 15 10 Thunderstorms FEW016 BKN027 OVC055 71 66     84%   72 29.83        
Jun 22 21:14 SW 15 10 Thunderstorms SCT029 BKN039 OVC055 79 72     79%   82 29.81        
Jun 22 20:53 S 8 10 Thunderstorms FEW036 BKN050 BKN080 82 74     77%   88 29.8 29.76      
Jun 22 19:53 SSE 9 10 Mostly Cloudy SCT037 SCT049 BKN065 82 74     77%   88 29.77 29.73      
Jun 22 18:53 S 11 10 Mostly Cloudy FEW034 BKN065 84 74     72%   91 29.78 29.75      
Jun 22 17:53 S 16 10 Partly Cloudy SCT027 85 74     70%   92 29.8 29.76      
Jun 22 17:43 S 16 10 Mostly Cloudy SCT024 BKN029 85 75     72%   93 29.8        
Jun 22 16:53 S 20 10 Clear and Windy CLR 88 75     66%   98 29.82 29.78      
Jun 22 15:53 SSE 18 10 Mostly Clear FEW047 FEW060 87 75     68%   97 29.85 29.81      
Jun 22 14:53 S 18 10 Partly Cloudy FEW028 SCT060 87 75     68%   97 29.86 29.82      
Jun 22 13:53 SSE 14 10 Mostly Cloudy BKN030 BKN035 86 75     70%   95 29.86 29.82      
Jun 22 12:53 SE 14 10 Mostly Cloudy BKN030 BKN036 85 73     68%   92 29.87 29.83     0
Jun 22 11:53 E 11 10 Clear CLR 84 70     63%   88 29.88 29.84      
Jun 22 10:53 E 7 10 Clear CLR 82 68     63%   85 29.88 29.85      
Jun 22 10:04 ESE 6 10 Clear CLR 78 69     74%   79 29.91        
Jun 22 09:53 WNW 7 10 Clear CLR 77 68     74%   78 29.9 29.87   0  
Jun 22 08:53 WNW 7 10 Mostly Clear FEW100 74 66     76%   75 29.87 29.84      
Jun 22 07:53 E 13 10 Mostly Clear FEW100 73 66     79%   74 29.78   0    
Jun 22 07:00 WNW 10 9 Light Rain FEW032 SCT110 73 71     94%   74 29.9   0    
Jun 22 06:53 WNW 6 10 Mostly Cloudy BKN022 BKN100 72 70     93%   73 29.9 29.87      
Jun 22 05:53 SSE 3 10 Mostly Cloudy BKN022 72 70     93%   73 29.85 29.81      
Jun 22 05:44 SE 6 10 Mostly Cloudy BKN021 73 70     90%   74 29.84        
Jun 22 04:53 SE 10 10 Partly Cloudy SCT023 73 69     87%   74 29.82 29.79      
Jun 22 03:53 ESE 7 10 Cloudy OVC020 74 70     87%   75 29.81 29.77      
Jun 22 03:01 ENE 13 10 Cloudy BKN022 BKN027 OVC041 74 70     87%   75 29.79        
Jun 22 02:53 ENE 7 10 Mostly Cloudy SCT024 BKN033 BKN041 74 71     91%   75 29.8 29.77      
Jun 22 01:53 SE 6 10 Clear CLR 77 73     88%   79 29.79 29.76      
Jun 22 00:53 SSE 3 10 Clear CLR 75 71     88%   76 29.77 29.74      
Jun 21 23:53 SSE 8 10 Clear CLR 75 70     84%   76 29.78 29.75      
Jun 21 22:53 SSE 10 10 Clear CLR 74 69     85%   75 29.76 29.73      
Jun 21 21:53 SE 13 10 Clear CLR 75 69     82%   76 29.75 29.71      
Jun 21 20:53 SE 11 10 Clear CLR 76 70     82%   77 29.72 29.69      
Jun 21 19:53 SE 14 10 Clear CLR 79 71     77%   82 29.7 29.67      
Jun 21 18:53 SE 11 10 Clear CLR 80 71     74%   84 29.71 29.67      
Jun 21 17:53 SSE 11 10 Clear CLR 80 69     69%   83 29.72 29.68      
Jun 21 16:53 SSE 14 10 Clear CLR 79 68     69%   80 29.72 29.68      
Jun 21 15:53 ESE 16 10 Clear CLR 77 67     71%   78 29.72 29.68      
Jun 21 14:53 ESE 17 10 Clear CLR 74 65     74%   74 29.74 29.7      
Jun 21 13:53 ESE 15 10 Clear CLR 70 64     81%     29.73 29.7      
Jun 21 12:53 ENE 10 10 Clear CLR 67 64     90%     29.76 29.73     1
Jun 21 11:53 E 10 10 Mostly Cloudy SCT095 BKN110 66 63     90%     29.76 29.73 0    
Jun 21 11:38 ENE 11 10 Partly Cloudy FEW100 SCT120 66 63     90%     29.76   0    
Jun 21 11:22   10 Thunderstorms and Rain FEW055 SCT075 BKN110 66 63     90%     29.73   0    
Jun 21 11:18 ESE 15 1.75 Thunderstorms and Rain and Fog/Mist FEW055 SCT075 BKN120 66 63     90%     29.75   0    
Jun 21 11:11 E 15 2 Light Rain and Fog/Mist SCT050 BKN100 OVC120 66 63     90%     29.76   0    
Jun 21 10:41 NNE 15 8 Thunderstorms and Rain BKN039 BKN080 OVC100 66 63     90%     29.81   0    
Jun 21 10:34   3 Rain and Fog/Mist BKN039 OVC095 66 63     90%     29.81   0    
Jun 21 10:26   2 Thunderstorms and Heavy Rain and Fog/Mist OVC033 66 63     90%     29.82   0    
Jun 21 10:13   1.25 Thunderstorms and Heavy Rain and Fog/Mist FEW009 BKN027 OVC035 67 65     93%     29.81   0    
Jun 21 10:06   2 Thunderstorms and Heavy Rain and Fog/Mist FEW007 SCT011 BKN021 67 65     93%     29.84   0    
May 14 19:53 WNW 7 10 Clear   74 58     57%   74 29.82 29.79      
May 14 16:53 SSW 7 10 Mostly Clear FEW041 FEW060 81 69     67%   84 29.83 29.79      
May 14 11:53 SSW 15 10 Clear CLR 83 68     61%   86 29.94 29.9      
May 14 10:53 S 8 10 Clear CLR 84 68     59%   87 29.93 29.89      
May 13 16:53 S 15 10 Mostly Clear FEW050 90 69     50%   95 29.88 29.84      
May 12 15:53 S 16 10 Cloudy OVC055 82 68     63%   85 29.88 29.84      
May 12 14:53 S 17 10 Mostly Cloudy BKN049 83 67     59%   86 29.88 29.84      
May 12 03:53 SSW 11 10 Mostly Clear FEW100 FEW120 74 63     69%   74 29.85 29.81      
May 11 11:53 S 23 10 Partly Cloudy and Windy SCT036 80 63     56%   81 29.77 29.74      
Jun 11 14:53 S 17 10 Clear CLR 90 68     49%   94 29.83 29.79      
Jun 11 04:53 S 11 10 Clear CLR 72 64     76%   72 29.84 29.8      
Jun 10 18:53 S 22 10 Clear and Windy CLR 84 68     59%   87 29.75 29.71      
Jun 10 10:53   10 Clear CLR 79 65     62%   80 29.83 29.79      
Jun 09 04:53 S 3 10 Clear CLR 58 53     84%     29.9 29.87      
Jun 08 13:53 SSE 9 10 Clear CLR 80 50     35%   79 30.02 29.98      
Jun 08 08:53 S 6 10 Clear CLR 69 56     63%     30.08 30.05      
Jun 07 21:53 ESE 3 10 Clear CLR 67 51     57%     30.06 30.03      
Jun 07 10:53 E 10 10 Clear CLR 75 45     34%   74 30.13 30.1      
Jun 06 10:53 NE 9 10 Clear CLR 76 56     50%   76 30.02 29.99      
Jun 06 06:53 ENE 7 10 Clear CLR 67 57     71%     29.99 29.95      
Jun 05 21:53 NE 5 10 Clear   75 53     46%   74 29.88 29.84